Terminal Aerodrome Forecast
Issued by NWS

Home | Current Version | Previous Version | Text Only | Print | Product List | Glossary On
Versions: 1 2 3 4 5 6 7 8 9 10 11 12 13 14 15 16 17 18 19 20 21 22 23 24 25 26 27 28 29
895
FTUS45 KSLC 252340
TAFPVU
TAF
KPVU 252340Z 2600/2624 VRB06KT P6SM SCT100 BKN140
     FM260400 VRB04KT P6SM SKC
     FM261900 18006KT P6SM SCT100 SCT140
      AMD LTD TO CLD VIS AND WIND=

USA.gov is the U.S. government's official web portal to all federal, state and local government web resources and services.